1359072030503,3.81676
1359072090503,3.83444
1359072150503,3.84517
1359072210503,3.81559
1359072270503,3.83605
1359072330503,3.86213
1359072390503,3.81028
1359072450503,3.83162
1359072510503,3.85295
1359072570503,3.82762
1359072630503,3.84025
1359072690503,3.82970
1359072750503,3.82436
1359072810503,3.82262
1359072870503,3.83597
1359072930503,3.82119
1359072990503,3.82146
1359073050503,3.78070
1359073110503,3.82712
1359073170503,3.82672
1359073230503,3.83248
1359073290503,3.80242
1359073350503,3.83034
1359073410503,3.81595
1359073470503,3.86874
1359073530503,3.79628
1359073590503,3.83984
1359073650503,3.82470
1359073710503,3.82167
1359073770503,3.87057
1359073830503,3.81623
1359073890503,3.80342
1359073950503,3.84510
1359074010503,3.82363
1359074070503,3.82493
1359074130503,3.80222
1359074190503,3.83931
1359074250503,3.81767
1359074310503,3.82219
1359074370503,3.85461
1359074430503,3.83634
1359074490503,3.84867
1359074550503,3.83819
1359074610503,3.80881
1359074670503,3.84870
1359074730503,3.83025
1359074790503,3.85321
1359074850503,3.81265
1359074910503,3.83460
1359074970503,3.84981
1359075030503,3.81684
1359075090503,3.82651
1359075150503,3.85386
1359075210503,3.83936
1359075270503,3.85223
1359075330503,3.83820
1359075390503,3.82279
1359075450503,3.83103
1359075510503,3.79930
1359075570503,3.82311
1359075630513,3.84742
1359075690513,3.82522
1359075750513,3.82865
1359075810513,3.83725
1359075870513,3.81543
1359075930513,3.83251
1359075990513,3.84013
1359076050513,3.81771
1359076110513,3.83968
1359076170513,3.82930
1359076230513,3.80743
1359076290513,3.81782
1359076350513,3.81749
1359076410513,3.81402
1359076470513,3.82508
1359076530513,3.83724
1359076590513,3.82845
1359076650513,3.82973
1359076710513,3.84565
1359076770513,3.84494
1359076830513,3.86960
1359076890513,3.83298
1359076950513,3.85320
1359077010513,3.81885
1359077070513,3.83880
1359077130513,3.83667
1359077190513,3.85515
1359077250513,3.87190
1359077310513,3.86651
1359077370513,3.85627
1359077430513,3.88780
1359077490513,3.82304
1359077550513,3.83804
1359077610513,3.82625
1359077670513,3.81293
1359077730513,3.80601
1359077790513,3.86056
1359077850513,3.85929
1359077910513,3.83370
1359077970513,3.85068
1359078030513,3.82955
1359078090513,3.80572
1359078150513,3.81888
1359078210513,3.82586
1359078270513,3.81730
1359078330513,3.82808
1359078390513,3.82469
1359078450513,3.81163
1359078510513,3.83163
1359078570513,3.81770
1359078630513,3.82551
1359078690513,3.84220
1359078750513,3.82202
1359078810513,3.85142
1359078870513,3.84642
1359078930513,3.83267
1359078990513,3.81812
1359079050513,3.80336
1359079110513,3.82412
1359079170513,3.80261
1359079230524,3.82382
1359079290524,3.82973
1359079350524,3.81927
1359079410524,3.83183
1359079470524,3.79618
1359079530524,3.81703
1359079590524,3.80419
1359079650524,3.81225
1359079710524,3.78077
1359079770524,3.85480
1359079830524,3.81650
1359079890524,3.80527
1359079950524,3.77166
1359080010524,3.79027
1359080070524,3.81410
1359080130524,3.81511
1359080190524,3.78352
1359080250524,3.79643
1359080310524,3.78652
1359080370524,3.79410
1359080430524,3.80833
1359080490524,3.80096
1359080550524,3.78391
1359080610524,3.81141
1359080670524,3.79376
1359080730524,3.78738
1359080790524,3.77968
1359080850524,3.81585
1359080910524,3.81396
1359080970524,3.78540
1359081030524,3.82231
1359081090524,3.81660
1359081150524,3.80326
1359081210524,3.79753
1359081270524,3.81918
1359081330524,3.80556
1359081390524,3.79014
1359081450524,3.77405
1359081510524,3.81103
1359081570524,3.78195
1359081630524,3.80524
1359081690524,3.77405
1359081750524,3.81478
1359081810524,3.80349
1359081870524,3.78611
1359081930524,3.78572
1359081990524,3.79190
1359082050524,3.81862
1359082110524,3.78322
1359082170524,3.84731
1359082230524,3.81827
1359082290524,3.80990
1359082350524,3.77349
1359082410524,3.83429
1359082470524,3.78048
1359082530524,3.81466
1359082590524,3.77373
1359082650524,3.79072
1359082710524,3.80019
1359082770524,3.77329
1359082830534,3.77947
1359082890534,3.75797
1359082950534,3.81143
1359083010534,3.78927
1359083070534,3.81566
1359083130534,3.79845
1359083190534,3.82344
1359083250534,3.82574
1359083310534,3.78862
1359083370534,3.79290
1359083430534,3.79797
1359083490534,3.81012
1359083550534,3.75063
1359083610534,3.78018
1359083670534,3.79800
1359083730534,3.81933
1359083790534,3.81073
1359083850534,3.80358
1359083910534,3.82435
1359083970534,3.83351
1359084030534,3.81033
1359084090534,3.81046
1359084150534,3.82450
1359084210534,3.80839
1359084270534,3.79647
1359084330534,3.77054
1359084390534,3.79991
1359084450534,3.81117
1359084510534,3.82309
1359084570534,3.77782
1359084630534,3.80498
1359084690534,3.78306
1359084750534,3.77560
1359084810534,3.78567
1359084870534,3.79651
1359084930534,3.78627
1359084990534,3.77834
1359085050534,3.78457
1359085110534,3.78209
1359085170534,3.77994
1359085230534,3.77765
1359085290534,3.77094
1359085350534,3.75966
1359085410534,3.75724
1359085470534,3.76320
1359085530534,3.80827
1359085590534,3.78113
1359085650534,3.75307
1359085710534,3.78737
1359085770534,3.76088
1359085830534,3.76440
1359085890534,3.80093
1359085950534,3.77069
1359086010534,3.80699
1359086070534,3.81027
1359086130534,3.79747
1359086190534,3.77611
1359086250534,3.77332
1359086310534,3.76474
1359086370534,3.77209
1359086430545,3.81822
1359086490545,3.79354
1359086550545,3.79584
1359086610545,3.80719
1359086670545,3.77064
1359086730545,3.77277
1359086790545,3.78139
1359086850545,3.75993
1359086910545,3.77063
1359086970545,3.77800
1359087030545,3.76086
1359087090545,3.78321
1359087150545,3.79530
1359087210545,3.80587
1359087270545,3.75703
1359087330545,3.78783
1359087390545,3.77646
1359087450545,3.77938
1359087510545,3.79476
1359087570545,3.78260
1359087630545,3.75338
1359087690545,3.78831
1359087750545,3.79280
1359087810545,3.76653
1359087870545,3.79348
1359087930545,3.78139
1359087990545,3.78376
1359088050545,3.77308
1359088110545,3.76776
1359088170545,3.78642
1359088230545,3.75512
1359088290545,3.77926
1359088350545,3.76368
1359088410545,3.79058
1359088470545,3.78077
1359088530545,3.79763
1359088590545,3.77554
1359088650545,3.77767
1359088710545,3.76591
1359088770545,3.77262
1359088830545,3.78333
1359088890545,3.77815
1359088950545,3.78429
1359089010545,3.77865
1359089070545,3.77469
1359089130545,3.79542
1359089190545,3.79065
1359089250545,3.77038
1359089310545,3.81110
1359089370545,3.80229
1359089430545,3.80807
1359089490545,3.78967
1359089550545,3.78970
1359089610545,3.76574
1359089670545,3.77629
1359089730545,3.77322
1359089790545,3.76904
1359089850545,3.78313
1359089910545,3.79346
1359089970545,3.82203
1359090030556,3.78495
1359090090556,3.81692
1359090150556,3.79016
1359090210556,3.78727
1359090270556,3.79716
1359090330556,3.78667
1359090390556,3.81106
1359090450556,3.79898
1359090510556,3.77164
1359090570556,3.77885
1359090630556,3.75348
1359090690556,3.77656
1359090750556,3.75850
1359090810556,3.77582
1359090870556,3.79041
1359090930556,3.76846
1359090990556,3.79870
1359091050556,3.77254
1359091110556,3.80203
1359091170556,3.78494
1359091230556,3.78091
1359091290556,3.79979
1359091350556,3.78320
1359091410556,3.79478
1359091470556,3.79168
1359091530556,3.78780
1359091590556,3.80959
1359091650556,3.79026
1359091710556,3.79379
1359091770556,3.79991
1359091830556,3.76701
1359091890556,3.79237
1359091950556,3.76586
1359092010556,3.78912
1359092070556,3.76580
1359092130556,3.80069
1359092190556,3.78940
1359092250556,3.80894
1359092310556,3.78640
1359092370556,3.84050
1359092430556,3.80287
1359092490556,3.79605
1359092550556,3.80972
1359092610556,3.80794
1359092670556,3.79072
1359092730556,3.79079
1359092790556,3.82514
1359092850556,3.78556
1359092910556,3.78932
1359092970556,3.81414
1359093030556,3.81610
1359093090556,3.77065
1359093150556,3.79387
1359093210556,3.79341
1359093270556,3.80287
1359093330556,3.79929
1359093390556,3.80628
1359093450556,3.79493
1359093510556,3.79827
1359093570556,3.79378
1359093630567,3.81900
1359093690567,3.80896
1359093750567,3.84638
1359093810567,3.76813
1359093870567,3.82108
1359093930567,3.82845
1359093990567,3.83023
1359094050567,3.81371
1359094110567,3.81003
1359094170567,3.80917
1359094230567,3.83127
1359094290567,3.81268
1359094350567,3.83565
1359094410567,3.82498
1359094470567,3.77738
1359094530567,3.80655
1359094590567,3.81804
1359094650567,3.82244
1359094710567,3.82255
1359094770567,3.78622
1359094830567,3.77324
1359094890567,3.77227
1359094950567,3.80460
1359095010567,3.80545
1359095070567,3.82618
1359095130567,3.81104
1359095190567,3.81214
1359095250567,3.80388
1359095310567,3.77721
1359095370567,3.80003
1359095430567,3.79851
1359095490567,3.81659
1359095550567,3.81556
1359095610567,3.79156
1359095670567,3.82219
1359095730567,3.78847
1359095790567,3.79917
1359095850567,3.82428
1359095910567,3.79302
1359095970567,3.79587
1359096030567,3.82691
1359096090567,3.85067
1359096150567,3.81625
1359096210567,3.84649
1359096270567,3.84131
1359096330567,3.81645
1359096390567,3.79646
1359096450567,3.84628
1359096510567,3.81435
1359096570567,3.81084
1359096630567,3.78508
1359096690567,3.84043
1359096750567,3.83909
1359096810567,3.79520
1359096870567,3.80348
1359096930567,3.79385
1359096990567,3.80194
1359097050567,3.82241
1359097110567,3.80521
1359097170567,3.79156
1359097230578,3.84839
1359097290578,3.81243
1359097350578,3.79081
1359097410578,3.79274
1359097470578,3.80671
1359097530578,3.81201
1359097590578,3.80570
1359097650578,3.81959
1359097710578,3.78150
1359097770578,3.79703
1359097830578,3.79578
1359097890578,3.83340
1359097950578,3.83608
1359098010578,3.83722
1359098070578,3.81756
1359098130578,3.80526
1359098190578,3.79278
1359098250578,3.79502
1359098310578,3.78130
1359098370578,3.80997
1359098430578,3.77346
1359098490578,3.81275
1359098550578,3.82055
1359098610578,3.81118
1359098670578,3.79534
1359098730578,3.81273
1359098790578,3.79136
1359098850578,3.80840
1359098910578,3.81077
1359098970578,3.80806
1359099030578,3.81599
1359099090578,3.82802
1359099150578,3.80636
1359099210578,3.81998
1359099270578,3.78030
1359099330578,3.81091
1359099390578,3.80892
1359099450578,3.80396
1359099510578,3.80066
1359099570578,3.77499
1359099630578,3.77314
1359099690578,3.76878
1359099750578,3.79886
1359099810578,3.80689
1359099870578,3.77872
1359099930578,3.79026
1359099990578,3.76481
1359100050578,3.78937
1359100110578,3.79566
1359100170578,3.78288
1359100230578,3.77052
1359100290578,3.82252
1359100350578,3.78465
1359100410578,3.79034
1359100470578,3.81506
1359100530578,3.79065
1359100590578,3.79404
1359100650578,3.81202
1359100710578,3.81073
1359100770578,3.83469
1359100830590,3.83475
1359100890590,3.79632
1359100950590,3.79109
1359101010590,3.79381
1359101070590,3.77575
1359101130590,3.78931
1359101190590,3.76110
1359101250590,3.74506
1359101310590,3.80175
1359101370590,3.80778
1359101430590,3.77475
1359101490590,3.81112
1359101550590,3.78261
1359101610590,3.79005
1359101670590,3.78952
1359101730590,3.77115
1359101790590,3.75807
1359101850590,3.77866
1359101910590,3.74633
1359101970590,3.79421
1359102030590,3.80047
1359102090590,3.81514
1359102150590,3.80938
1359102210590,3.80712
1359102270590,3.77186
1359102330590,3.76125
1359102390590,3.80055
1359102450590,3.79199
1359102510590,3.77841
1359102570590,3.79342
1359102630590,3.77217
1359102690590,3.77063
1359102750590,3.81289
1359102810590,3.78136
1359102870590,3.77716
1359102930590,3.80460
1359102990590,3.78009
1359103050590,3.80119
1359103110590,3.77609
1359103170590,3.76971
1359103230590,3.80335
1359103290590,3.75608
1359103350590,3.77475
1359103410590,3.76827
1359103470590,3.77420
1359103530590,3.77627
1359103590590,3.78779
1359103650590,3.75356
1359103710590,3.77301
1359103770590,3.82525
1359103830590,3.77557
1359103890590,3.80433
1359103950590,3.78312
1359104010590,3.79079
1359104070590,3.76615
1359104130590,3.78697
1359104190590,3.77144
1359104250590,3.78579
1359104310590,3.80126
1359104370590,3.75289
1359104430601,3.79913
1359104490601,3.78492
1359104550601,3.77728
1359104610601,3.79986
1359104670601,3.81020
1359104730601,3.78930
1359104790601,3.80525
1359104850601,3.75984
1359104910601,3.76793
1359104970601,3.79106
1359105030601,3.80542
1359105090601,3.76910
1359105630601,3.77261
1359105690601,3.78477
1359105750601,3.78166
1359105810601,3.77342
1359105870601,3.76743
1359105930601,3.79030
1359105990601,3.77594
1359106050601,3.78007
1359106110601,3.76514
1359106170601,3.79913
1359106230601,3.76549
1359106290601,3.79399
1359106350601,3.76767
1359106410601,3.76608
1359106470601,3.77555
1359106530601,3.81188
1359106590601,3.76150
1359106650601,3.77309
1359106710601,3.77792
1359106770601,3.80169
1359106830601,3.79702
1359106890601,3.80049
1359106950601,3.78231
1359107010601,3.83773
1359107070601,3.77694
1359107130601,3.81612
1359107190601,3.80943
1359107250601,3.79110
1359107310601,3.79921
1359107370601,3.78585
1359107430601,3.77479
1359107490601,3.77906
1359107550601,3.78016
1359107610601,3.77973
1359107670601,3.78815
1359107730601,3.80818
1359107790601,3.79258
1359107850601,3.81205
1359107910601,3.77617
1359107970601,3.79026
1359108030613,3.80840
1359108090613,3.79902
1359108150613,3.79297
1359108210613,3.78853
1359108270613,3.78848
1359108330613,3.82193
1359108390613,3.80991
1359108450613,3.78852
1359108510613,3.79121
1359108570613,3.80569
1359108630613,3.77173
1359108690613,3.78312
1359108750613,3.79925
1359108810613,3.76034
1359108870613,3.78301
1359108930613,3.79618
1359108990613,3.78355
1359109050613,3.78428
1359109110613,3.79487
1359109170613,3.80328
1359109230613,3.79646
1359109290613,3.77589
1359109350613,3.80615
1359109410613,3.78848
1359109470613,3.78256
1359109530613,3.82945
1359109590613,3.77115
1359109650613,3.80445
1359109710613,3.75385
1359109770613,3.79747
1359109830613,3.77345
1359109890613,3.77126
1359109950613,3.80041
1359110010613,3.78117
1359110070613,3.78851
1359110130613,3.78117
1359110190613,3.73835
1359110250613,3.76015
1359110310613,3.77598
1359110370613,3.79856
1359110430613,3.79926
1359110490613,3.80752
1359110550613,3.78454
1359110610613,3.80005
1359110670613,3.77231
1359110730613,3.77495
1359110790613,3.74184
1359110850613,3.78794
1359110910613,3.75595
1359110970613,3.81692
1359111030613,3.77747
1359111090613,3.78874
1359111150613,3.78511
1359111210613,3.79217
1359111270613,3.78816
1359111330613,3.80165
1359111390613,3.80982
1359111450613,3.76465
1359111510613,3.78478
1359111570613,3.78320
1359111630625,3.78092
1359111690625,3.79061
1359111750625,3.79754
1359111810625,3.77366
1359111870625,3.78632
1359111930625,3.80522
1359111990625,3.78726
1359112050625,3.77442
1359112110625,3.83708
1359112170625,3.78910
1359112230625,3.78599
1359112290625,3.79733
1359112350625,3.78966
1359112410625,3.81181
1359112470625,3.77017
1359112530625,3.83429
1359112590625,3.77729
1359112650625,3.75336
1359112710625,3.80077
1359112770625,3.79951
1359112830625,3.77486
1359112890625,3.79552
1359112950625,3.78394
1359113010625,3.78300
1359113070625,3.76865
1359113130625,3.77138
1359113190625,3.78069
1359113250625,3.79310
1359113310625,3.77324
1359113370625,3.79090
1359113430625,3.77495
1359113490625,3.77374
1359113550625,3.79349
1359113610625,3.79596
1359113670625,3.77525
1359113730625,3.76549
1359113790625,3.80540
1359113850625,3.77194
1359113910625,3.80120
1359113970625,3.78235
1359114030625,3.80349
1359114090625,3.82210
1359114150625,3.78779
1359114210625,3.81430
1359114270625,3.78317
1359114330625,3.77256
1359114390625,3.78886
1359114450625,3.78683
1359114510625,3.76907
1359114570625,3.77824
1359114630625,3.78001
1359114690625,3.78386
1359114750625,3.78910
1359114810625,3.79797
1359114870625,3.79004
1359114930625,3.78372
1359114990625,3.82957
1359115050625,3.78652
1359115110625,3.81314
1359115170625,3.80020
1359115230636,3.77321
1359115290636,3.78184
1359115350636,3.79065
1359115410636,3.78273
1359115470636,3.77618
1359115530636,3.75199
1359115590636,3.76730
1359115650636,3.78058
1359115710636,3.78239
1359115770636,3.76580
1359115830636,3.79445
1359115890636,3.75327
1359115950636,3.77236
1359116010636,3.81603
1359116070636,3.79706
1359116130636,3.77086
1359116190636,3.77739
1359116250636,3.77737
1359116310636,3.79281
1359116370636,3.78918
1359116430636,3.75516
1359116490636,3.77200
1359116550636,3.75871
1359116610636,3.76228
1359116670636,3.74835
1359116730636,3.79800
1359116790636,3.76139
1359116850636,3.75063
1359116910636,3.77344
1359116970636,3.75027
1359117030636,3.79404
1359117090636,3.76495
1359117150636,3.77099
1359117210636,3.75852
1359117270636,3.79305
1359117330636,3.77598
1359117390636,3.77137
1359117450636,3.79345
1359117510636,3.78399
1359117570636,3.76995
1359117630636,3.76646
1359117690636,3.79360
1359117750636,3.80182
1359117810636,3.81571
1359117870636,3.77681
1359117930636,3.75322
1359117990636,3.78691
1359118050636,3.75333
1359118110636,3.76486
1359118170636,3.77915
1359118230636,3.75363
1359118290636,3.75026
1359118350636,3.77877
1359118410636,3.78656
1359118470636,3.78828
1359118530636,3.78907
1359118590636,3.78594
1359118650636,3.76589
1359118710636,3.76992
1359118770636,3.73866
1359118830648,3.73793
1359118890648,3.80022
1359118950648,3.78240
1359119010648,3.76077
1359119070648,3.77209
1359119130648,3.74620
1359119190648,3.78198
1359119250648,3.77983
1359119310648,3.77312
1359119370648,3.80243
1359119430648,3.78503
1359119490648,3.78887
1359119550648,3.76253
1359119610648,3.76895
1359119670648,3.80661
1359119730648,3.77471
1359119790648,3.75422
1359119850648,3.78989
1359119910648,3.79401
1359119970648,3.81882
1359120030648,3.77494
1359120090648,3.76948
1359120150648,3.80655
1359120210648,3.76907
1359120270648,3.77051
1359120330648,3.78515
1359120390648,3.79288
1359120450648,3.80163
1359120510648,3.78586
1359120570648,3.77361
1359120630648,3.79795
1359120690648,3.80823
1359120750648,3.78122
1359120810648,3.77605
1359120870648,3.75107
1359120930648,3.79007
1359120990648,3.77984
1359121050648,3.77125
1359121110648,3.78124
1359121170648,3.79083
1359121230648,3.79227
1359121290648,3.79370
1359121350648,3.76303
1359121410648,3.79167
1359121470648,3.80393
1359121530648,3.79566
1359121590648,3.81625
1359121650648,3.80334
1359121710648,3.80008
1359121770648,3.80647
1359121830648,3.78528
1359121890648,3.79082
1359121950648,3.79681
1359122010648,3.78217
1359122070648,3.79025
1359122130648,3.78649
1359122190648,3.74191
1359122250648,3.76976
1359122310648,3.78903
1359122370648,3.80860
1359122430659,3.79484
1359122490659,3.77406
1359122550659,3.75975
1359122610659,3.79061
1359122670659,3.75691
1359122730659,3.73098
1359122790659,3.78386
1359122850659,3.78635
1359122910659,3.76721
1359122970659,3.80260
1359123030659,3.78178
1359123090659,3.78224
1359123150659,3.77719
1359123210659,3.86855
1359123270659,3.75304
1359123330659,3.76496
1359123390659,3.78688
1359123450659,3.79484
1359123510659,3.79382
1359123570659,3.77830
1359123630659,3.79834
1359123690659,3.79499
1359123750659,3.74634
1359123810659,3.79519
1359123870659,3.77131
1359123930659,3.77994
1359123990659,3.78038
1359124050659,3.79360
1359124110659,3.79264
1359124170659,3.78995
1359124230659,3.78181
1359124290659,3.77257
1359124350659,3.78376
1359124410659,3.80495
1359124470659,3.78004
1359124530659,3.76134
1359124590659,3.78898
1359124650659,3.77357
1359124710659,3.75748
1359124770659,3.75853
1359124830659,3.76657
1359124890659,3.76726
1359124950659,3.80346
1359125010659,3.77637
1359125070659,3.76418
1359125130659,3.71272
1359125190659,3.75341
1359125250659,3.75976
1359125310659,3.76046
1359125370659,3.75644
1359125430659,3.77985
1359125490659,3.77485
1359125550659,3.73079
1359125610659,3.76334
1359125670659,3.77574
1359125730659,3.74508
1359125790659,3.76916
1359125850659,3.76235
1359125910659,3.74700
1359125970659,3.75269
1359126030671,3.76999
1359126090671,3.76215
1359126150671,3.78191
1359126210671,3.75375
1359126270671,3.76829
1359126330671,3.77377
1359126390671,3.75468
1359126450671,3.77696
1359126510671,3.76771
1359126570671,3.72672
1359126630671,3.76339
1359126690671,3.75967
1359126750671,3.76238
1359126810671,3.76762
1359126870671,3.78584
1359126930671,3.75730
1359126990671,3.73588
1359127050671,3.77612
1359127110671,3.76540
1359127170671,3.76081
1359127230671,3.77369
1359127290671,3.78699
1359127350671,3.76858
1359127410671,3.72685
1359127470671,3.75358
1359127530671,3.77558
1359127590671,3.75969
1359127650671,3.77564
1359127710671,3.76848
1359127770671,3.77059
1359127830671,3.77270
1359127890671,3.72945
1359127950671,3.75291
1359128010671,3.75188
1359128070671,3.77849
1359128130671,3.76693
1359128190671,3.75788
1359128250671,3.74373
1359128310671,3.74965
1359128370671,3.74630
1359128430671,3.75413
1359128490671,3.80765
1359128550671,3.76141
1359128610671,3.77929
1359128670671,3.76213
1359128730671,3.77645
1359128790671,3.76336
1359128850671,3.73384
1359128910671,3.76896
1359128970671,3.75772
1359129030671,3.77462
1359129090671,3.78173
1359129150671,3.95955
1359129210671,3.78166
1359129270671,3.77001
1359129330671,3.77890
1359129390671,3.78832
1359129450671,3.75119
1359129510671,3.76587
1359129570671,3.75027
1359129630682,3.73933
1359129690682,3.76976
1359129750682,3.77468
1359129810682,3.71477
1359129870682,3.74138
1359129930682,3.76203
1359129990682,3.75749
1359130050682,3.76175
1359130110682,3.74167
1359130170682,3.75828
1359130230682,3.74224
1359130290682,3.74372
1359130350682,3.74438
1359130410682,3.76390
1359130470682,3.74700
1359130530682,3.77310
1359130590682,3.72887
1359130650682,3.73091
1359130710682,3.74761
1359130770682,3.74481
1359130830682,3.74370
1359130890682,3.76224
1359130950682,3.77999
1359131010682,3.75379
1359131070682,3.74132
1359131130682,3.77479
1359131190682,3.70674
1359131250682,3.75719
1359131310682,3.74127
1359131370682,3.72591
1359131430682,3.73572
1359131490682,3.74607
1359131550682,3.75844
1359131610682,3.74904
1359131670682,3.73215
1359131730682,3.72313
1359131790682,3.71653
1359131850682,3.72834
1359131910682,3.71136
1359131970682,3.71568
1359132030682,3.71132
1359132090682,3.73981
1359132150682,3.74153
1359132210682,3.69346
1359132270682,3.73230
1359132330682,3.72910
1359132390682,3.70644
1359132450682,3.72776
1359132510682,3.71324
1359132570682,3.71459
1359132630682,3.73931
1359132690682,3.73919
1359132750682,3.73742
1359132810682,3.72373
1359132870682,3.68201
1359132930682,3.69090
1359132990682,3.72606
1359133050682,3.69836
1359133110682,3.70498
1359133170682,3.72347
1359133230693,3.73030
1359133290693,3.74181
1359133350693,3.72216
1359133410693,3.72178
1359133470693,3.70382
1359133530693,3.69077
1359133590693,3.72979
1359133650693,3.72735
1359133710693,3.72552
1359133770693,3.72388
1359133830693,3.72487
1359133890693,3.71365
1359133950693,3.70704
1359134010693,3.74067
1359134070693,3.71286
1359134130693,3.72663
1359134190693,3.72784
1359134250693,3.73621
1359134310693,3.71863
1359134370693,3.70496
1359134430693,3.71688
1359134490693,3.72253
1359134550693,3.71205
1359134610693,3.72870
1359134670693,3.70062
1359134730693,3.72879
1359134790693,3.75512
1359134850693,3.72333
1359134910693,3.74604
1359134970693,3.73670
1359135030693,3.69422
1359135090693,3.71607
1359135150693,3.71313
1359135210693,3.71558
1359135270693,3.73706
1359135330693,3.72526
1359135390693,3.71909
1359135450693,3.72845
1359135510693,3.73436
1359135570693,3.70988
1359135630693,3.73185
1359135690693,3.70398
1359135750693,3.72512
1359135810693,3.72550
1359135870693,3.71126
1359135930693,3.72724
1359135990693,3.74282
1359136050693,3.72690
1359136110693,3.70321
1359136170693,3.70638
1359136230693,3.75807
1359136290693,3.70908
1359136350693,3.71662
1359136410693,3.72649
1359136470693,3.70661
1359136530693,3.74029
1359136590693,3.72484
1359136650693,3.74792
1359136710693,3.72761
1359136770693,3.72424
1359136830704,3.74853
1359136890704,3.73511
1359136950704,3.72656
1359137010704,3.72033
1359137070704,3.71317
1359137130704,3.74706
1359137190704,3.69639
1359137250704,3.72630
1359137310704,3.73677
1359137370704,3.76827
1359137430704,3.75942
1359137490704,3.72076
1359137550705,3.76408
1359137610704,3.77614
1359137670704,3.78301
1359137730704,3.75021
1359137790704,3.70207
1359137850704,3.72393